Weather History for KISN - September, 2012

Change the Weather History Date:

Sunday, September 30, 2012

  Actual Average Record
Temperature  
Mean Temperature 59 °F 50 °F  
Max Temperature 72 °F 64 °F 92 °F (1963)
Min Temperature 45 °F 36 °F 15 °F (2003)
Degree Days  
Heating Degree Days 6 15  
Month to date heating degree days 203 275  
Since 1 July heating degree days 228 346  
Cooling Degree Days 0 0  
Month to date cooling degree days 20 26  
Year to date cooling degree days 532 455  
Growing Degree Days 10 (Base 50)    
Moisture  
Dew Point 44 °F    
Average Humidity 67    
Maximum Humidity 100    
Minimum Humidity 33    
Precipitation  
Precipitation 0.04 in 0.03 in 0.89 in (2014)
Month to date precipitation 0.08 1.06  
Year to date precipitation 9.59 12.18  
Snow  
Snow 0.00 in 0.00 in 0.50 in (1944)
Month to date snowfall 0.0 0.2  
Snow Depth 0.00 in    
Sea Level Pressure  
Sea Level Pressure 30.05 in    
Wind  
Wind Speed 8 mph (NNW)    
Max Wind Speed 26 mph    
Max Gust Speed 33 mph    
Visibility 10 miles    
Events Rain    
T = Trace of Precipitation, MM = Missing Value Source: NWS Daily Summary

Daily Weather History Graph

Daily Weather History Graph

Search for Another Location

Airport or City:

Trip Planner

Search our weather history database for the weather conditions in past years. The results will help you decide how hot, cold, wet, or windy it might be!

Date:

Astronomy

Sep. 30, 2012 Rise Set
Actual Time 7:53 AM CDT 7:34 PM CDT
Civil Twilight 7:22 AM CDT 8:05 PM CDT
Nautical Twilight 6:45 AM CDT 8:41 PM CDT
Astronomical Twilight 6:08 AM CDT 9:18 PM CDT
Moon 7:31 PM CDT (9/30) 8:33 AM CDT (9/30)
Length of Visible Light 12h 43m
Length of Day
11h 41m
Full, 100% of the Moon is Illuminated
Sep 30
Full
Oct 8
Last Quarter
Oct 15
New
Oct 21
First Quarter
Oct 29
Full

Hourly Weather History & Observations

Time (CDT) Temp. Dew Point Humidity Pressure Visibility Wind Dir Wind Speed Gust Speed Precip Events Conditions
12:52 AM 61.0 °F 39.0 °F 44% 29.91 in 10.0 mi West 6.9 mph - N/A   Clear
1:52 AM 59.0 °F 39.0 °F 48% 29.92 in 10.0 mi South 4.6 mph - N/A   Clear
2:52 AM 57.0 °F 39.9 °F 53% 29.93 in 10.0 mi Variable 3.5 mph - N/A   Clear
3:52 AM 53.1 °F 39.9 °F 61% 29.94 in 10.0 mi South 3.5 mph - N/A   Clear
4:52 AM 54.0 °F 41.0 °F 62% 29.94 in 10.0 mi South 4.6 mph - N/A   Clear
5:52 AM 55.9 °F 42.1 °F 60% 29.96 in 10.0 mi Calm Calm - N/A   Clear
6:52 AM 52.0 °F 42.1 °F 69% 29.98 in 10.0 mi West 4.6 mph - N/A   Clear
7:52 AM 50.0 °F 43.0 °F 77% 30.01 in 10.0 mi Calm Calm - N/A   Clear
8:52 AM 52.0 °F 44.1 °F 74% 30.03 in 10.0 mi Calm Calm - N/A   Clear
9:52 AM 55.9 °F 45.0 °F 67% 30.04 in 10.0 mi SSW 3.5 mph - N/A   Clear
10:52 AM 59.0 °F 46.0 °F 62% 30.04 in 10.0 mi Calm Calm - N/A   Clear
11:52 AM 66.0 °F 46.0 °F 48% 30.04 in 10.0 mi NE 9.2 mph 17.3 mph N/A   Clear
12:52 PM 68.0 °F 46.0 °F 45% 30.04 in 10.0 mi NNW 10.4 mph - N/A   Clear
1:52 PM 71.1 °F 41.0 °F 34% 30.04 in 10.0 mi North 16.1 mph 21.9 mph N/A   Clear
2:52 PM 72.0 °F 41.0 °F 33% 30.04 in 10.0 mi North 21.9 mph 26.5 mph N/A   Clear
3:52 PM 70.0 °F 39.0 °F 32% 30.06 in 10.0 mi North 19.6 mph 25.3 mph N/A   Scattered Clouds
4:52 PM 64.0 °F 43.0 °F 46% 30.09 in 10.0 mi North 25.3 mph 33.4 mph N/A   Partly Cloudy
5:52 PM 54.0 °F 48.9 °F 83% 30.14 in 10.0 mi North 12.7 mph - 0.01 in Rain Light Rain
6:52 PM 54.0 °F 50.0 °F 86% 30.16 in 10.0 mi North 12.7 mph - 0.00 in   Overcast
7:52 PM 53.1 °F 51.1 °F 93% 30.18 in 10.0 mi North 4.6 mph - 0.00 in Rain Light Rain
8:52 PM 51.1 °F 50.0 °F 96% 30.20 in 10.0 mi NNW 6.9 mph - 0.03 in   Mostly Cloudy
9:52 PM 50.0 °F 48.9 °F 96% 30.22 in 10.0 mi NNW 6.9 mph - N/A   Partly Cloudy
10:52 PM 48.0 °F 46.0 °F 93% 30.24 in 10.0 mi NW 3.5 mph - N/A   Partly Cloudy
11:52 PM 46.9 °F 46.0 °F 97% 30.24 in 10.0 mi WNW 10.4 mph - N/A   Clear